26 juin 2022

Temps Code Temps Temp. Vue Base cloud Vent METAR/SPECI
12:50 pm
V
66 °F 6¼ mi+ - 220° 220° 6 kt METAR EDLV 261050Z 22006KT 180V250 CAVOK 19/13 Q1016
12:20 pm
V
66 °F 6¼ mi+ - 210° 210° 6 kt METAR EDLV 261020Z 21006KT 180V240 9999 FEW025 19/13 Q1016
11:50 am
V
68 °F 6¼ mi+ - 180° 180° 5 kt METAR EDLV 260950Z 18005KT 130V230 9999 FEW025 20/14 Q1016
11:20 am
V
66 °F 6¼ mi+ - 230° 230° 6 kt METAR EDLV 260920Z 23006KT 200V260 9999 FEW024 19/13 Q1016
10:50 am
V
66 °F 6¼ mi+ - 210° 210° 6 kt METAR EDLV 260850Z 21006KT 160V250 9999 SCT026 19/13 Q1016
10:20 am
V
66 °F 6¼ mi+ - 240° 240° 5 kt METAR EDLV 260820Z 24005KT 190V300 9999 FEW021 19/13 Q1016
9:50 am
V
66 °F 6¼ mi+ - 250° 250° 6 kt METAR EDLV 260750Z 25006KT 200V280 9999 FEW018 SCT021 19/14 Q1016
9:20 am
V
64 °F 6¼ mi+ - 230° 230° 5 kt METAR EDLV 260720Z 23005KT 180V260 9999 FEW016 18/15 Q1015
8:50 am
V
64 °F 6¼ mi+ - 230° 230° 6 kt METAR EDLV 260650Z 23006KT 200V270 9999 SCT015 18/14 Q1015
8:20 am
V
63 °F 6¼ mi+ - 250° 250° 9 kt METAR EDLV 260620Z 25009KT 9999 FEW014 17/14 Q1015
7:50 am
V
63 °F 6¼ mi+ - 240° 240° 8 kt METAR EDLV 260550Z 24008KT 9999 FEW012 17/14 Q1014
7:20 am
V
61 °F 6¼ mi+ - 240° 240° 9 kt METAR EDLV 260520Z 24009KT CAVOK 16/14 Q1014
6:50 am
V
61 °F 6¼ mi+ - 230° 230° 7 kt METAR EDLV 260450Z 23007KT CAVOK 16/15 Q1014
6:20 am
M
63 °F 6¼ mi+ 2.300 ft 230° 230° 6 kt METAR EDLV 260420Z 23006KT 9999 FEW010 BKN023 17/15 Q1013
5:50 am
M
63 °F 6¼ mi+ 2.200 ft 240° 240° 8 kt METAR EDLV 260350Z 24008KT 9999 FEW009 BKN022 17/15 Q1013
5:20 am
V
63 °F 6¼ mi+ 4.900 ft 220° 220° 6 kt METAR EDLV 260320Z 22006KT 9999 SCT010 OVC049 17/16 Q1013
4:50 am
V
61 °F 5⅝ mi - 220° 220° 4 kt METAR EDLV 260250Z 22004KT 9000 FEW013 16/15 Q1012
4:20 am
V
61 °F 5⅝ mi 4.500 ft 220° 220° 4 kt METAR EDLV 260220Z AUTO 22004KT 9000 BKN045/// 16/16 Q1012
3:50 am
V
61 °F 6¼ mi+ 4.200 ft 220° 220° 3 kt METAR EDLV 260150Z AUTO 22003KT 190V260 9999 BKN042/// OVC170/// 16/15 Q1012
3:20 am
V
61 °F 5 mi 16.000 ft 280° 280° 3 kt METAR EDLV 260120Z AUTO 28003KT 8000 FEW059/// SCT078/// OVC160/// 16/16 Q1012
2:50 am
V
63 °F 5⅝ mi 10.000 ft Var 000° 0 kt METAR EDLV 260050Z AUTO 00000KT 9000 SCT087/// BKN100/// OVC150/// 17/16 Q1012
2:20 am
V
63 °F 6¼ mi+ 9.700 ft Var Var 2 kt METAR EDLV 260020Z AUTO VRB02KT 9999 FEW085/// BKN097/// OVC160/// 17/16 Q1012
1:50 am
V
63 °F 6¼ mi+ 10.000 ft 160° 160° 3 kt METAR EDLV 252350Z AUTO 16003KT 110V250 9999 FEW065/// OVC100/// 17/16 Q1012
1:20 am
V
63 °F 6¼ mi+ 8.600 ft 280° 280° 5 kt METAR EDLV 252320Z AUTO 28005KT 250V320 9999 FEW066/// BKN086/// OVC160/// 17/15 Q1012
12:50 am
V
63 °F 6¼ mi+ 18.000 ft 240° 240° 10 kt METAR EDLV 252250Z AUTO 24010KT 9999 SCT067/// SCT092/// OVC180/// 17/16 Q1012
12:20 am
V
63 °F 6¼ mi+ - Var Var 2 kt METAR EDLV 252220Z VRB02KT CAVOK 17/16 Q1011

25 juin 2022

Temps Code Temps Temp. Vue Base cloud Vent METAR/SPECI
11:50 pm
V
64 °F 6¼ mi+ - 320° 320° 3 kt METAR EDLV 252150Z 32003KT CAVOK 18/16 Q1011
11:20 pm
V
64 °F 6¼ mi+ - Var 000° 0 kt METAR EDLV 252120Z 00000KT CAVOK 18/16 Q1011
10:50 pm
V
64 °F 6¼ mi+ - 320° 320° 4 kt METAR EDLV 252050Z 32004KT CAVOK 18/16 Q1011
10:20 pm
V
64 °F 6¼ mi+ - 320° 320° 4 kt METAR EDLV 252020Z 32004KT CAVOK 18/16 Q1011
9:50 pm
V
66 °F 6¼ mi+ - 310° 310° 5 kt METAR EDLV 251950Z 31005KT 260V340 CAVOK 19/16 Q1011
9:20 pm
V
66 °F 6¼ mi+ - 300° 300° 8 kt METAR EDLV 251920Z 30008KT 270V340 CAVOK 19/16 Q1011
8:50 pm
V
70 °F 6¼ mi+ - Var Var 2 kt METAR EDLV 251850Z VRB02KT CAVOK 21/16 Q1011
8:20 pm
V
73 °F 6¼ mi+ - 110° 110° 2 kt METAR EDLV 251820Z 11002KT CAVOK 23/16 Q1010
7:50 pm
V
75 °F 6¼ mi+ - 130° 130° 3 kt METAR EDLV 251750Z 13003KT 100V170 CAVOK 24/15 Q1010
7:20 pm
V
75 °F 6¼ mi+ - 140° 140° 5 kt METAR EDLV 251720Z 14005KT CAVOK 24/15 Q1010
6:50 pm
V
75 °F 6¼ mi+ - 170° 170° 6 kt METAR EDLV 251650Z 17006KT 140V200 CAVOK 24/15 Q1010
6:20 pm
V
75 °F 6¼ mi+ - 160° 160° 5 kt METAR EDLV 251620Z 16005KT CAVOK 24/15 Q1010
5:50 pm
V
75 °F 6¼ mi+ - 180° 180° 5 kt METAR EDLV 251550Z 18005KT 140V200 9999 FEW046 24/15 Q1011
5:20 pm
V
75 °F 6¼ mi+ - 170° 170° 6 kt METAR EDLV 251520Z 17006KT 140V210 9999 FEW047 24/15 Q1011
4:50 pm
V
75 °F 6¼ mi+ - 180° 180° 5 kt METAR EDLV 251450Z 18005KT 140V230 9999 FEW044 24/15 Q1011
4:20 pm
V
75 °F 6¼ mi+ - 180° 180° 5 kt METAR EDLV 251420Z 18005KT 130V240 9999 FEW042 24/15 Q1011
3:50 pm
V
77 °F 6¼ mi+ - 190° 190° 4 kt METAR EDLV 251350Z 19004KT 110V250 9999 FEW042 25/15 Q1011
3:20 pm
V
75 °F 6¼ mi+ - 200° 200° 6 kt METAR EDLV 251320Z 20006KT 140V250 9999 FEW039 24/15 Q1012
2:50 pm
V
75 °F 6¼ mi+ - 170° 170° 6 kt METAR EDLV 251250Z 17006KT 130V220 9999 FEW035 24/16 Q1012
2:20 pm
V
77 °F 6¼ mi+ - 200° 200° 6 kt METAR EDLV 251220Z 20006KT 150V270 9999 FEW035 25/16 Q1012
1:50 pm
V
73 °F 6¼ mi+ - 200° 200° 7 kt METAR EDLV 251150Z 20007KT 160V230 CAVOK 23/15 Q1012
1:20 pm
V
72 °F 6¼ mi+ - 220° 220° 7 kt METAR EDLV 251120Z 22007KT 190V250 CAVOK 22/16 Q1012
12:50 pm
V
72 °F 6¼ mi+ - 210° 210° 8 kt METAR EDLV 251050Z 21008KT 180V250 9999 FEW032 22/15 Q1012
12:20 pm
V
72 °F 6¼ mi+ 4.700 ft 230° 230° 9 kt METAR EDLV 251020Z 23009KT 200V270 9999 SCT034 BKN047 22/16 Q1012
11:20 am
V
72 °F 6¼ mi+ - 210° 210° 9 kt METAR EDLV 250920Z 21009KT 180V240 9999 SCT028 22/15 Q1012
10:50 am
V
70 °F 6¼ mi+ 4.700 ft 200° 200° 8 kt METAR EDLV 250850Z 20008KT 170V230 9999 FEW025 SCT029 BKN047 21/16 Q1012
10:20 am
V
72 °F 6¼ mi+ - 190° 190° 9 kt METAR EDLV 250820Z 19009KT 160V220 9999 SCT025 22/16 Q1012
9:50 am
V
72 °F 6¼ mi+ - 220° 220° 8 kt METAR EDLV 250750Z 22008KT 180V250 9999 FEW023 22/16 Q1011
9:20 am
V
68 °F 6¼ mi+ - 210° 210° 7 kt METAR EDLV 250720Z 21007KT 170V230 CAVOK 20/15 Q1011
8:50 am
V
68 °F 6¼ mi+ - 210° 210° 7 kt METAR EDLV 250650Z 21007KT 180V240 CAVOK 20/16 Q1011
8:20 am
V
66 °F 6¼ mi+ - 190° 190° 7 kt METAR EDLV 250620Z 19007KT 160V230 CAVOK 19/16 Q1011
7:50 am
V
64 °F 6¼ mi+ - 190° 190° 7 kt METAR EDLV 250550Z 19007KT CAVOK 18/16 Q1011
7:20 am
V
64 °F 6¼ mi+ - 180° 180° 7 kt METAR EDLV 250520Z 18007KT CAVOK 18/16 Q1011
6:50 am
V
63 °F 6¼ mi+ - 170° 170° 6 kt METAR EDLV 250450Z 17006KT CAVOK 17/15 Q1010
6:20 am
V
61 °F 6¼ mi+ - 170° 170° 6 kt METAR EDLV 250420Z 17006KT CAVOK 16/15 Q1010
5:50 am
V
61 °F 6¼ mi+ - 170° 170° 7 kt METAR EDLV 250350Z 17007KT CAVOK 16/15 Q1010
5:20 am
V
61 °F 6¼ mi+ - 170° 170° 6 kt METAR EDLV 250320Z 17006KT CAVOK 16/15 Q1010
4:50 am
V
61 °F 6¼ mi+ - 180° 180° 6 kt METAR EDLV 250250Z 18006KT CAVOK 16/15 Q1010
4:20 am
V
61 °F 6¼ mi+ - 180° 180° 6 kt METAR EDLV 250220Z AUTO 18006KT 9999 NCD 16/15 Q1010
3:50 am
V
61 °F 6¼ mi+ - 190° 190° 6 kt METAR EDLV 250150Z AUTO 19006KT 9999 NCD 16/15 Q1009
3:20 am
V
61 °F 6¼ mi+ - 180° 180° 7 kt METAR EDLV 250120Z AUTO 18007KT 9999 NCD 16/15 Q1009
2:50 am
V
61 °F 6¼ mi+ - 180° 180° 5 kt METAR EDLV 250050Z AUTO 18005KT 9999 NCD 16/15 Q1009
2:20 am
V
63 °F 6¼ mi+ - 180° 180° 6 kt METAR EDLV 250020Z AUTO 18006KT 9999 NCD 17/16 Q1009
1:50 am
V
63 °F 6¼ mi+ - 170° 170° 6 kt METAR EDLV 242350Z AUTO 17006KT 9999 NCD 17/16 Q1009
1:20 am
V
63 °F 6¼ mi+ - 170° 170° 6 kt METAR EDLV 242320Z AUTO 17006KT 9999 NCD 17/16 Q1009
12:50 am
V
63 °F 6¼ mi+ - 160° 160° 5 kt METAR EDLV 242250Z AUTO 16005KT 9999 NCD 17/16 Q1008
12:20 am
V
63 °F 6¼ mi+ - 160° 160° 5 kt METAR EDLV 242220Z AUTO 16005KT 9999 NCD 17/16 Q1009

24 juin 2022

Temps Code Temps Temp. Vue Base cloud Vent METAR/SPECI
11:50 pm
V
63 °F 6¼ mi+ - 170° 170° 4 kt METAR EDLV 242150Z 17004KT 150V220 CAVOK 17/16 Q1008
11:20 pm
V
63 °F 6¼ mi+ - 140° 140° 5 kt METAR EDLV 242120Z 14005KT CAVOK 17/16 Q1008
10:50 pm
V
64 °F 6¼ mi+ - 160° 160° 3 kt METAR EDLV 242050Z 16003KT 120V220 CAVOK 18/17 Q1008
10:20 pm
V
64 °F 6¼ mi+ - 190° 190° 3 kt METAR EDLV 242020Z 19003KT 9999 VCSH NSC 18/17 Q1008
9:50 pm
V
64 °F 5⅝ mi - 190° 190° 6 kt METAR EDLV 241950Z 19006KT 160V220 9000 -DZ VCSH FEW055TCU 18/17 Q1008
9:20 pm
V
66 °F 6¼ mi+ - 220° 220° 6 kt METAR EDLV 241920Z 22006KT 9999 VCSH FEW042 19/17 Q1008
8:50 pm
V
68 °F 6¼ mi+ - 150° 150° 4 kt METAR EDLV 241850Z 15004KT 130V190 9999 VCSH FEW041TCU 20/18 Q1007
8:20 pm
V
70 °F 6¼ mi+ - 120° 120° 3 kt METAR EDLV 241820Z 12003KT 090V150 9999 FEW040 21/19 Q1007
7:50 pm
V
66 °F 6¼ mi+ - 180° 180° 5 kt METAR EDLV 241750Z 18005KT 150V240 9999 FEW036 19/17 Q1007 RESHRA
7:20 pm
I
70 °F 1⅞ mi - 210° 210° 8 kt METAR EDLV 241720Z 21008KT 180V240 3000 SHRA SCT037TCU 21/17 Q1006
6:50 pm
V
73 °F 6¼ mi+ - 220° 220° 5 kt METAR EDLV 241650Z 22005KT 190V250 9999 FEW038 SCT044 23/16 Q1006
6:20 pm
V
75 °F 6¼ mi+ - 200° 200° 7 kt METAR EDLV 241620Z 20007KT 170V230 9999 FEW040 24/16 Q1006
5:50 pm
V
75 °F 6¼ mi+ - 200° 200° 6 kt METAR EDLV 241550Z 20006KT 160V260 9999 FEW034 24/15 Q1006
5:20 pm
V
75 °F 6¼ mi+ 3.400 ft 200° 200° 4 kt METAR EDLV 241520Z 20004KT 130V280 9999 BKN034 24/16 Q1006
4:50 pm
V
75 °F 6¼ mi+ 3.300 ft 230° 230° 5 kt METAR EDLV 241450Z 23005KT 170V340 9999 BKN033 24/16 Q1006
4:20 pm
V
75 °F 6¼ mi+ 3.000 ft 270° 270° 5 kt METAR EDLV 241420Z 27005KT 210V350 9999 FEW026 BKN030 BKN040 24/16 Q1006
3:50 pm
V
73 °F 6¼ mi+ - Var Var 5 kt METAR EDLV 241350Z VRB05KT 9999 SCT022 23/17 Q1006
3:20 pm
V
73 °F 6¼ mi+ - 280° 280° 6 kt METAR EDLV 241320Z 28006KT 230V330 9999 FEW016 23/18 Q1007
2:50 pm
V
70 °F 6¼ mi+ - 300° 300° 6 kt METAR EDLV 241250Z 30006KT 250V330 9999 VCSH FEW013 SCT016 21/18 Q1007
2:20 pm
V
70 °F 6¼ mi+ 3.300 ft 280° 280° 8 kt METAR EDLV 241220Z 28008KT 250V320 9999 VCSH SCT024TCU BKN033 21/18 Q1007
1:50 pm
V
72 °F 6¼ mi+ - 210° 210° 8 kt METAR EDLV 241150Z 21008KT 9999 VCSH SCT020TCU 22/17 Q1007
1:20 pm
V
73 °F 6¼ mi+ - 260° 260° 7 kt METAR EDLV 241120Z 26007KT 210V280 9999 FEW017 SCT029 23/19 Q1007
12:50 pm
M
72 °F 6¼ mi+ 1.700 ft 270° 270° 8 kt METAR EDLV 241050Z 27008KT 9999 SCT011 BKN017 22/19 Q1007
Données plus anciennes

Télécharge notre application

Un accès facile à toute la météo aéronautique sur ton téléphone portable et ta tablette.
Avec de nombreuses fonctionnalités non disponibles sur le site Web, comme la prise en charge hors ligne et une liste personnelle d'aéroports.

Nous et des tiers suivons ton comportement sur Internet sur notre site Web à l'aide de cookies. Si tu continues, nous supposons que tu acceptes notre politique en matière de cookies. Apprendre plus